Location: *
(34.0486°S, 61.7880°E)
Time: 19:53:41
(UTC+00:00)

Cosmos 1271 Rocket - Pass Details

Date: 01 April 2020
Orbit: 499 x 545 km, 81.2° (Epoch: 28 May)

Event Time Altitude Azimuth Distance (km) Brightness Sun altitude
Rises 14:31:36 0° 12° (NNE) 2,594 6.1 -10.0°
Reaches altitude 10° 14:33:49 10° 20° (NNE) 1,724 5.1 -10.4°
Maximum altitude 14:37:17 35° 87° (E) 850 3.2 -11.2°
Drops below altitude 10° 14:40:51 10° 153° (SSE) 1,771 5.2 -11.9°
Sets 14:43:08 0° 162° (SSE) 2,677 6.2 -12.4°
